Location: Shenandoah County Park
(38.9356°N, 78.4524°W)
Time: 19:37:41
(UTC-05:00)

Vanguard 1 - All Passes

Search period start: 03 December 2023 00:00
Search period end: 13 December 2023 00:00
Orbit: 651 x 3828 km, 34.3° (Epoch: 01 December)

Date Brightness Start Highest point End Pass type
(mag) Time Alt. Az. Time Alt. Az. Time Alt. Az.
03 Dec - 00:43:42 10° W 01:04:53 45° SW 01:20:45 10° SSE visible
03 Dec - 03:17:48 10° W 03:25:53 14° WSW 03:32:46 10° SSW visible
03 Dec - 15:36:23 10° S 15:46:02 25° SE 15:59:53 10° E daylight
03 Dec - 17:52:52 10° SW 18:07:34 59° SSE 18:29:53 10° E visible
03 Dec - 20:14:01 10° WSW 20:33:24 78° S 20:56:50 10° E visible
03 Dec - 22:38:09 10° W 23:00:38 67° SSW 23:20:49 10° ESE visible
04 Dec - 01:05:16 10° W 01:25:02 37° SW 01:40:07 10° SSE visible
04 Dec - 15:55:14 10° SSW 16:05:49 33° SE 16:22:03 10° E daylight
04 Dec - 18:13:02 10° WSW 18:28:11 66° SSE 18:51:07 10° E visible
04 Dec - 20:34:45 10° W 20:54:33 78° S 21:17:48 10° ESE visible
04 Dec - 22:59:09 10° W 23:21:27 61° SSW 23:41:05 10° SE visible
05 Dec - 01:27:13 10° W 01:45:02 30° SW 01:59:02 10° S visible
05 Dec - 16:14:33 10° SSW 16:25:45 41° SE 16:43:47 10° E daylight
05 Dec - 18:33:21 10° WSW 18:48:58 71° SSE 19:12:20 10° E visible
05 Dec - 20:55:31 10° W 21:15:41 76° S 21:38:40 10° ESE visible
05 Dec - 23:20:15 10° W 23:42:05 54° SSW 00:01:07 10° SE visible
06 Dec - 01:49:50 10° W 02:04:55 23° SW 02:17:15 10° S night (unlit)
06 Dec - 14:20:48 10° SSE 14:26:11 14° ESE 14:32:57 10° E daylight
06 Dec - 16:34:13 10° SW 16:45:53 49° SE 17:05:17 10° E daylight
06 Dec - 18:53:48 10° WSW 19:09:53 75° S 19:33:31 10° E visible
06 Dec - 21:16:19 10° W 21:36:45 72° SSW 21:59:24 10° ESE visible
06 Dec - 23:41:28 10° W 00:02:33 46° SW 00:20:52 10° SSE visible
07 Dec - 02:13:47 10° W 02:24:42 16° SW 02:34:11 10° SSW night (unlit)
07 Dec - 14:38:23 10° S 14:45:47 21° SE 14:56:20 10° E daylight
07 Dec - 16:54:07 10° SW 17:06:12 57° SSE 17:26:39 10° E visible
07 Dec - 19:14:21 10° WSW 19:30:54 77° S 19:54:39 10° E visible
07 Dec - 21:37:09 10° W 21:57:44 67° SSW 22:19:58 10° ESE visible
08 Dec - 00:02:53 10° W 00:22:51 39° SW 00:40:15 10° SSE visible
08 Dec - 14:57:05 10° S 15:05:30 29° SE 15:18:36 10° E daylight
08 Dec - 17:14:14 10° SW 17:26:42 64° SSE 17:47:57 10° E visible
08 Dec - 19:34:57 10° W 19:51:57 77° S 20:15:44 10° ESE visible
08 Dec - 21:58:02 10° W 22:18:35 61° SSW 22:40:18 10° SE visible
09 Dec - 00:24:41 10° W 00:43:01 31° SW 00:59:10 10° S visible
09 Dec - 15:16:21 10° SSW 15:25:21 37° SE 15:40:22 10° E daylight
09 Dec - 17:34:29 10° WSW 17:47:22 70° SSE 18:09:14 10° E visible
09 Dec - 19:55:36 10° W 20:13:00 75° S 20:36:43 10° ESE visible
09 Dec - 22:18:59 10° W 22:39:19 54° SSW 23:00:23 10° SE visible
10 Dec - 00:47:05 10° W 01:03:04 24° SW 01:17:24 10° S visible
10 Dec - 13:24:59 10° SE 13:26:31 10° ESE 13:28:09 10° ESE daylight
10 Dec - 15:35:58 10° SW 15:45:24 45° SE 16:01:52 10° E daylight
10 Dec - 17:54:52 10° WSW 18:08:10 74° S 18:30:29 10° E visible
10 Dec - 20:16:16 10° W 20:34:01 71° SSW 20:57:33 10° ESE visible
10 Dec - 22:40:04 10° W 22:59:54 47° SW 23:20:09 10° SSE visible
11 Dec - 01:10:41 10° W 01:23:03 17° SW 01:34:27 10° SSW visible
11 Dec - 13:40:52 10° SSE 13:46:05 17° SE 13:53:08 10° E daylight
11 Dec - 15:55:50 10° SW 16:05:37 54° SSE 16:23:14 10° E daylight
11 Dec - 18:15:19 10° WSW 18:29:02 76° S 18:51:43 10° E visible
11 Dec - 20:36:59 10° W 20:54:58 66° SSW 21:18:12 10° ESE visible
11 Dec - 23:01:22 10° W 23:20:21 39° SW 23:39:32 10° SSE visible
12 Dec - 01:37:59 10° WSW 01:43:01 11° SW 01:47:53 10° SW night (unlit)
12 Dec - 13:59:19 10° S 14:05:47 24° SE 14:15:33 10° E daylight
12 Dec - 16:15:54 10° SW 16:26:01 62° SSE 16:44:32 10° E daylight
12 Dec - 18:35:49 10° W 18:49:58 76° S 19:12:53 10° ESE visible
12 Dec - 20:57:44 10° W 21:15:51 60° SSW 21:38:36 10° SE visible
12 Dec - 23:23:01 10° W 23:40:41 32° SW 23:58:26 10° S visible
